Hourly Weather Kozlovichi 1-e

Today, 20 October, Tuesday

Time Temperature Precipitation Wind Pressure Humidity
00:00 +1°C° 0 mm 4 mps 751 mmHg 88%
01:00 +1°C° 0 mm 4 mps 751 mmHg 88%
02:00 +1°C° 0 mm 4 mps 751 mmHg 89%
03:00 +1°C° 0 mm 4 mps 751 mmHg 89%
04:00 0°C° 0 mm 4 mps 751 mmHg 90%
05:00 0°C° 0 mm 4 mps 751 mmHg 91%
06:00 0°C° 0 mm 4 mps 752 mmHg 91%
07:00 +1°C° 0 mm 4 mps 752 mmHg 92%
08:00 +1°C° 0 mm 5 mps 752 mmHg 92%
09:00 +2°C° 0 mm 5 mps 752 mmHg 86%
10:00 +5°C° 0 mm 5 mps 753 mmHg 80%
11:00 +6°C° 0 mm 5 mps 753 mmHg 74%
12:00 +7°C° 0 mm 5 mps 753 mmHg 70%
13:00 +7°C° 0 mm 4 mps 754 mmHg 67%
14:00 +7°C° 0 mm 4 mps 754 mmHg 63%
15:00 +8°C° 0 mm 3 mps 754 mmHg 67%
16:00 +7°C° 0 mm 3 mps 754 mmHg 72%
17:00 +6°C° 0 mm 2 mps 754 mmHg 76%
18:00 +6°C° 0 mm 2 mps 754 mmHg 78%
19:00 +5°C° 0 mm 2 mps 754 mmHg 81%
20:00 +5°C° 0 mm 2 mps 754 mmHg 83%
21:00 +5°C° 0 mm 2 mps 754 mmHg 85%
22:00 +5°C° 0 mm 2 mps 754 mmHg 86%
23:00 +5°C° 0 mm 2 mps 754 mmHg 88%

Tomorrow, 21 October, Wednesday

Time Temperature Precipitation Wind Pressure Humidity
00:00 +4°C° 0 mm 3 mps 753 mmHg 87%
01:00 +4°C° 0 mm 3 mps 753 mmHg 86%
02:00 +4°C° 0 mm 3 mps 753 mmHg 85%
03:00 +4°C° 0 mm 4 mps 752 mmHg 84%
04:00 +5°C° 0 mm 4 mps 752 mmHg 83%
05:00 +5°C° 0 mm 4 mps 751 mmHg 83%
06:00 +5°C° 0 mm 5 mps 750 mmHg 81%
07:00 +5°C° 0 mm 5 mps 750 mmHg 79%
08:00 +6°C° 0 mm 5 mps 749 mmHg 78%
09:00 +5°C° 0.3 mm 5 mps 749 mmHg 80%
10:00 +5°C° 0.3 mm 5 mps 749 mmHg 83%
11:00 +5°C° 0.3 mm 5 mps 748 mmHg 86%
12:00 +6°C° 0.5 mm 4 mps 748 mmHg 86%
13:00 +6°C° 0.5 mm 4 mps 748 mmHg 87%
14:00 +6°C° 0.5 mm 4 mps 748 mmHg 88%
15:00 +7°C° 0 mm 3 mps 748 mmHg 88%
16:00 +7°C° 0 mm 3 mps 748 mmHg 88%
17:00 +7°C° 0 mm 3 mps 748 mmHg 89%
18:00 +7°C° 0 mm 2 mps 748 mmHg 90%
19:00 +6°C° 0 mm 2 mps 748 mmHg 91%
20:00 +6°C° 0 mm 2 mps 749 mmHg 93%
21:00 +6°C° 0 mm 2 mps 748 mmHg 93%
22:00 +6°C° 0 mm 2 mps 748 mmHg 93%
23:00 +6°C° 0 mm 2 mps 748 mmHg 93%

Day after tomorrow, 22 October, Thursday

Time Temperature Precipitation Wind Pressure Humidity
00:00 +6°C° 0 mm 2 mps 748 mmHg 92%
01:00 +6°C° 0 mm 2 mps 748 mmHg 92%
02:00 +7°C° 0 mm 2 mps 748 mmHg 91%
03:00 +7°C° 0.1 mm 3 mps 748 mmHg 90%
04:00 +7°C° 0.1 mm 3 mps 748 mmHg 89%
05:00 +8°C° 0.1 mm 3 mps 748 mmHg 89%
06:00 +6°C° 0 mm 4 mps 747 mmHg 88%
07:00 +6°C° 0 mm 4 mps 747 mmHg 88%
08:00 +6°C° 0 mm 5 mps 747 mmHg 87%
09:00 +8°C° 0 mm 5 mps 747 mmHg 83%
10:00 +9°C° 0 mm 5 mps 747 mmHg 78%
11:00 +12°C° 0 mm 5 mps 747 mmHg 74%
12:00 +12°C° 0 mm 5 mps 747 mmHg 73%
13:00 +13°C° 0 mm 5 mps 747 mmHg 71%
14:00 +14°C° 0 mm 5 mps 747 mmHg 69%
15:00 +13°C° 0 mm 5 mps 747 mmHg 73%
16:00 +12°C° 0 mm 4 mps 747 mmHg 78%
17:00 +12°C° 0 mm 4 mps 747 mmHg 82%
18:00 +11°C° 0 mm 4 mps 747 mmHg 84%
19:00 +11°C° 0 mm 4 mps 747 mmHg 87%
20:00 +10°C° 0 mm 3 mps 747 mmHg 89%
21:00 +10°C° 0 mm 3 mps 747 mmHg 90%
22:00 +10°C° 0 mm 3 mps 747 mmHg 91%
23:00 +10°C° 0 mm 3 mps 747 mmHg 91%

23 October, Friday

Time Temperature Precipitation Wind Pressure Humidity
00:00 +9°C° 0 mm 3 mps 747 mmHg 92%
01:00 +9°C° 0 mm 3 mps 747 mmHg 92%
02:00 +9°C° 0 mm 3 mps 747 mmHg 92%
03:00 +9°C° 0 mm 3 mps 746 mmHg 90%
04:00 +7°C° 0 mm 4 mps 746 mmHg 88%
05:00 +7°C° 0 mm 4 mps 746 mmHg 85%
06:00 +7°C° 0 mm 4 mps 745 mmHg 84%
07:00 +7°C° 0 mm 4 mps 745 mmHg 83%
08:00 +7°C° 0 mm 4 mps 745 mmHg 82%
09:00 +8°C° 0 mm 4 mps 745 mmHg 79%
10:00 +10°C° 0 mm 5 mps 744 mmHg 77%
11:00 +12°C° 0 mm 5 mps 744 mmHg 74%
12:00 +12°C° 0 mm 5 mps 744 mmHg 74%
13:00 +13°C° 0 mm 4 mps 744 mmHg 73%
14:00 +13°C° 0 mm 4 mps 743 mmHg 73%
15:00 +13°C° 0.1 mm 4 mps 743 mmHg 77%
16:00 +12°C° 0.1 mm 3 mps 743 mmHg 81%
17:00 +12°C° 0.1 mm 3 mps 743 mmHg 84%
18:00 +12°C° 0.1 mm 3 mps 743 mmHg 86%
19:00 +12°C° 0.1 mm 4 mps 743 mmHg 87%
20:00 +12°C° 0.1 mm 4 mps 743 mmHg 89%
21:00 +12°C° 0.1 mm 4 mps 743 mmHg 90%
22:00 +12°C° 0.1 mm 4 mps 743 mmHg 91%
23:00 +12°C° 0.1 mm 5 mps 743 mmHg 91%

24 October, Saturday

Time Temperature Precipitation Wind Pressure Humidity
00:00 +11°C° 0 mm 4 mps 743 mmHg 92%
01:00 +10°C° 0 mm 4 mps 743 mmHg 94%
02:00 +10°C° 0 mm 4 mps 743 mmHg 95%
03:00 +8°C° 0 mm 4 mps 743 mmHg 94%
04:00 +8°C° 0 mm 4 mps 744 mmHg 94%
05:00 +8°C° 0 mm 4 mps 744 mmHg 94%
06:00 +7°C° 0 mm 4 mps 744 mmHg 94%
07:00 +7°C° 0 mm 4 mps 744 mmHg 93%
08:00 +7°C° 0 mm 4 mps 744 mmHg 93%
09:00 +8°C° 0 mm 4 mps 744 mmHg 86%
10:00 +9°C° 0 mm 5 mps 744 mmHg 78%
11:00 +12°C° 0 mm 5 mps 744 mmHg 71%
12:00 +10°C° 0.1 mm 5 mps 744 mmHg 72%
13:00 +10°C° 0.1 mm 5 mps 743 mmHg 73%
14:00 +10°C° 0.1 mm 5 mps 743 mmHg 73%
15:00 +9°C° 0.1 mm 5 mps 743 mmHg 74%
16:00 +9°C° 0.1 mm 5 mps 743 mmHg 75%
17:00 +10°C° 0.1 mm 4 mps 742 mmHg 76%
18:00 +8°C° 0.2 mm 5 mps 742 mmHg 79%
19:00 +8°C° 0.2 mm 5 mps 742 mmHg 82%
20:00 +8°C° 0.2 mm 6 mps 742 mmHg 85%
21:00 +8°C° 0.4 mm 6 mps 742 mmHg 83%
22:00 +7°C° 0.4 mm 6 mps 743 mmHg 81%
23:00 +6°C° 0.4 mm 7 mps 743 mmHg 79%

25 October, Sunday

Time Temperature Precipitation Wind Pressure Humidity
00:00 +6°C° 0 mm 7 mps 743 mmHg 80%
01:00 +6°C° 0 mm 7 mps 743 mmHg 80%
02:00 +6°C° 0 mm 7 mps 743 mmHg 80%
03:00 +6°C° 0 mm 7 mps 744 mmHg 80%
04:00 +6°C° 0 mm 7 mps 744 mmHg 80%
05:00 +5°C° 0 mm 7 mps 744 mmHg 81%
06:00 +6°C° 0 mm 7 mps 745 mmHg 80%
07:00 +6°C° 0 mm 7 mps 745 mmHg 80%
08:00 +6°C° 0 mm 7 mps 745 mmHg 80%
09:00 +6°C° 0 mm 7 mps 746 mmHg 77%
10:00 +7°C° 0 mm 8 mps 746 mmHg 74%
11:00 +7°C° 0 mm 8 mps 747 mmHg 72%
12:00 +9°C° 0 mm 7 mps 747 mmHg 71%
13:00 +9°C° 0 mm 7 mps 747 mmHg 70%
14:00 +9°C° 0 mm 7 mps 748 mmHg 69%
15:00 +9°C° 0 mm 6 mps 748 mmHg 71%
16:00 +8°C° 0 mm 5 mps 748 mmHg 74%
17:00 +8°C° 0 mm 5 mps 748 mmHg 76%
18:00 +7°C° 0 mm 4 mps 749 mmHg 78%
19:00 +7°C° 0 mm 4 mps 749 mmHg 80%
20:00 +6°C° 0 mm 4 mps 750 mmHg 82%
21:00 +5°C° 0 mm 3 mps 750 mmHg 85%
22:00 +5°C° 0 mm 3 mps 750 mmHg 89%
23:00 +5°C° 0 mm 2 mps 751 mmHg 92%

26 October, Monday

Time Temperature Precipitation Wind Pressure Humidity
00:00 +5°C° 0 mm 2 mps 751 mmHg 92%
01:00 +5°C° 0 mm 2 mps 751 mmHg 93%
02:00 +5°C° 0 mm 2 mps 751 mmHg 93%
03:00 +4°C° 0 mm 3 mps 751 mmHg 93%
04:00 +4°C° 0 mm 3 mps 751 mmHg 93%
05:00 +4°C° 0 mm 3 mps 751 mmHg 94%
06:00 +4°C° 0 mm 3 mps 751 mmHg 92%
07:00 +5°C° 0 mm 3 mps 751 mmHg 91%
08:00 +5°C° 0 mm 3 mps 752 mmHg 90%
09:00 +7°C° 0 mm 3 mps 752 mmHg 85%
10:00 +9°C° 0 mm 3 mps 752 mmHg 80%
11:00 +10°C° 0 mm 3 mps 752 mmHg 74%
12:00 +10°C° 0 mm 3 mps 752 mmHg 72%
13:00 +11°C° 0 mm 3 mps 752 mmHg 69%
14:00 +13°C° 0 mm 2 mps 751 mmHg 66%
15:00 +12°C° 0 mm 2 mps 751 mmHg 71%
16:00 +9°C° 0 mm 2 mps 751 mmHg 76%
17:00 +9°C° 0 mm 1 mps 751 mmHg 81%
18:00 +9°C° 0 mm 1 mps 751 mmHg 83%
19:00 +8°C° 0 mm 1 mps 752 mmHg 85%
20:00 +8°C° 0 mm 1 mps 752 mmHg 87%
21:00 +7°C° 0 mm 1 mps 752 mmHg 88%
22:00 +6°C° 0 mm 0 mps 752 mmHg 88%
23:00 +6°C° 0 mm 0 mps 753 mmHg 88%
Show more